| time (UTC) | temp F | wind direction | speed MPH | gust MPH | rain 1hr in | rain 24hr in | rain mn in | humidity % | barometer mb |
| 20260510170324 | 56 | 239 | 6.0 | 14.0 | 0.00 | 0.00 | 0.00 | 69 | 1015.4 |
| 20260510165333 | 56 | 256 | 5.0 | 12.0 | 0.00 | 0.00 | 0.00 | 69 | 1015.4 |
| 20260510164320 | 55 | 217 | 4.0 | 13.0 | 0.00 | 0.00 | 0.00 | 68 | 1015.4 |
| 20260510163325 | 55 | 305 | 7.0 | 12.0 | 0.00 | 0.00 | 0.00 | 68 | 1015.5 |
| 20260510162316 | 55 | 260 | 7.0 | 11.0 | 0.00 | 0.00 | 0.00 | 67 | 1015.4 |
| 20260510161350 | 54 | 267 | 6.0 | 14.0 | 0.00 | 0.00 | 0.00 | 68 | 1015.3 |
| 20260510160327 | 53 | 302 | 6.0 | 11.0 | 0.00 | 0.00 | 0.00 | 69 | 1015.3 |
| 20260510155337 | 53 | 258 | 4.0 | 12.0 | 0.00 | 0.00 | 0.00 | 71 | 1015.4 |
| 20260510154341 | 52 | 260 | 7.0 | 12.0 | 0.00 | 0.00 | 0.00 | 71 | 1015.3 |
| 20260510153325 | 52 | 244 | 7.0 | 13.0 | 0.00 | 0.00 | 0.00 | 71 | 1015.2 |
| 20260510152346 | 52 | 282 | 5.0 | 12.0 | 0.00 | 0.00 | 0.00 | 72 | 1015.2 |
| 20260510151331 | 52 | 279 | 6.0 | 13.0 | 0.00 | 0.00 | 0.00 | 72 | 1015.1 |
| 20260510150312 | 52 | 306 | 5.0 | 12.0 | 0.00 | 0.00 | 0.00 | 72 | 1015.0 |
| 20260510145330 | 52 | 345 | 5.0 | 11.0 | 0.00 | 0.00 | 0.00 | 72 | 1015.0 |
| 20260510144321 | 52 | 345 | 4.0 | 10.0 | 0.00 | 0.00 | 0.00 | 72 | 1015.0 |
| 20260510143316 | 51 | 298 | 8.0 | 13.0 | 0.00 | 0.00 | 0.00 | 72 | 1014.9 |
| 20260510142331 | 51 | 345 | 4.0 | 11.0 | 0.00 | 0.00 | 0.00 | 72 | 1014.8 |
| 20260510141325 | 51 | 345 | 5.0 | 11.0 | 0.00 | 0.00 | 0.00 | 72 | 1014.6 |
| 20260510140317 | 51 | 345 | 5.0 | 10.0 | 0.00 | 0.00 | 0.00 | 72 | 1014.4 |
| 20260510135330 | 51 | 266 | 3.0 | 11.0 | 0.00 | 0.00 | 0.00 | 72 | 1014.2 |
| 20260510134313 | 51 | 267 | 6.0 | 14.0 | 0.00 | 0.00 | 0.00 | 72 | 1014.3 |
| 20260510133316 | 51 | 247 | 5.0 | 12.0 | 0.00 | 0.00 | 0.00 | 72 | 1014.2 |
| 20260510132325 | 51 | 261 | 8.0 | 12.0 | 0.00 | 0.00 | 0.00 | 72 | 1014.2 |
| 20260510131317 | 51 | 345 | 8.0 | 12.0 | 0.00 | 0.00 | 0.00 | 72 | 1014.2 |
| 20260510130338 | 51 | 260 | 7.0 | 14.0 | 0.00 | 0.00 | 0.00 | 72 | 1014.1 |
| 20260510125323 | 51 | 345 | 7.0 | 12.0 | 0.00 | 0.00 | 0.00 | 72 | 1014.0 |
| 20260510124317 | 51 | 262 | 6.0 | 14.0 | 0.00 | 0.00 | 0.00 | 72 | 1014.0 |
| 20260510123317 | 51 | 345 | 7.0 | 14.0 | 0.00 | 0.00 | 0.00 | 72 | 1014.1 |
| 20260510122345 | 51 | 262 | 4.0 | 13.0 | 0.00 | 0.00 | 0.00 | 72 | 1014.1 |
| 20260510121358 | 51 | 345 | 4.0 | 11.0 | 0.00 | 0.00 | 0.00 | 72 | 1014.1 |
| 20260510120315 | 51 | 345 | 7.0 | 13.0 | 0.00 | 0.00 | 0.00 | 72 | 1014.1 |
| 20260510115325 | 51 | 345 | 5.0 | 11.0 | 0.00 | 0.00 | 0.00 | 72 | 1014.0 |
| 20260510114330 | 51 | 345 | 5.0 | 12.0 | 0.00 | 0.00 | 0.00 | 72 | 1014.1 |
| 20260510113315 | 51 | 345 | 7.0 | 14.0 | 0.00 | 0.00 | 0.00 | 72 | 1014.2 |
| 20260510112344 | 51 | 345 | 9.0 | 15.0 | 0.00 | 0.00 | 0.00 | 72 | 1014.3 |
| 20260510111328 | 51 | 345 | 10.0 | 19.0 | 0.00 | 0.00 | 0.00 | 72 | 1014.3 |
| 20260510110314 | 51 | 345 | 6.0 | 17.0 | 0.00 | 0.00 | 0.00 | 72 | 1014.2 |
| 20260510105325 | 51 | 345 | 10.0 | 18.0 | 0.00 | 0.00 | 0.00 | 72 | 1014.2 |
| 20260510104331 | 51 | 345 | 10.0 | 18.0 | 0.00 | 0.00 | 0.00 | 72 | 1014.1 |
| 20260510103314 | 51 | 345 | 5.0 | 16.0 | 0.00 | 0.00 | 0.00 | 72 | 1014.1 |
| 20260510102355 | 51 | 345 | 7.0 | 14.0 | 0.00 | 0.00 | 0.00 | 72 | 1014.1 |
| 20260510101313 | 51 | 345 | 6.0 | 15.0 | 0.00 | 0.00 | 0.00 | 72 | 1014.2 |
| 20260510100321 | 51 | 345 | 9.0 | 14.0 | 0.00 | 0.00 | 0.00 | 72 | 1014.2 |
| 20260510095337 | 51 | 247 | 6.0 | 13.0 | 0.00 | 0.00 | 0.00 | 72 | 1014.1 |
| 20260510094323 | 51 | 345 | 7.0 | 13.0 | 0.00 | 0.00 | 0.00 | 72 | 1014.2 |
| 20260510093332 | 51 | 345 | 5.0 | 16.0 | 0.00 | 0.00 | 0.00 | 72 | 1014.2 |
| 20260510092344 | 51 | 345 | 9.0 | 17.0 | 0.00 | 0.00 | 0.00 | 71 | 1014.2 |
| 20260510091328 | 51 | 345 | 7.0 | 13.0 | 0.00 | 0.00 | 0.00 | 71 | 1014.1 |
| 20260510090333 | 51 | 345 | 8.0 | 16.0 | 0.00 | 0.00 | 0.00 | 71 | 1014.1 |
| 20260510085318 | 51 | 345 | 11.0 | 19.0 | 0.00 | 0.00 | 0.00 | 71 | 1014.1 |
| 20260510084325 | 51 | 345 | 11.0 | 19.0 | 0.00 | 0.00 | 0.00 | 70 | 1014.1 |
| 20260510083336 | 51 | 345 | 6.0 | 15.0 | 0.00 | 0.00 | 0.00 | 70 | 1014.2 |
| 20260510082319 | 51 | 345 | 8.0 | 19.0 | 0.00 | 0.00 | 0.00 | 70 | 1014.2 |
| 20260510081347 | 51 | 345 | 9.0 | 16.0 | 0.00 | 0.00 | 0.00 | 70 | 1014.2 |
| 20260510080327 | 51 | 345 | 8.0 | 15.0 | 0.00 | 0.00 | 0.00 | 70 | 1014.1 |
| 20260510075332 | 51 | 345 | 10.0 | 16.0 | 0.00 | 0.00 | 0.00 | 70 | 1014.2 |
| 20260510074322 | 51 | 345 | 9.0 | 16.0 | 0.00 | 0.00 | 0.00 | 70 | 1014.3 |
| 20260510073348 | 51 | 345 | 6.0 | 18.0 | 0.00 | 0.00 | 0.00 | 70 | 1014.4 |
| 20260510072349 | 51 | 345 | 7.0 | 16.0 | 0.00 | 0.00 | 0.00 | 70 | 1014.4 |
| 20260510071346 | 51 | 345 | 7.0 | 15.0 | 0.00 | 0.00 | 0.00 | 71 | 1014.4 |
| 20260510070315 | 51 | 345 | 7.0 | 14.0 | 0.00 | 0.00 | 0.00 | 71 | 1014.3 |
| 20260510065321 | 51 | 345 | 5.0 | 12.0 | 0.00 | 0.00 | 0.00 | 71 | 1014.3 |
| 20260510064335 | 52 | 345 | 6.0 | 11.0 | 0.00 | 0.00 | 0.00 | 71 | 1014.2 |
| 20260510063318 | 52 | 345 | 2.0 | 9.0 | 0.00 | 0.00 | 0.00 | 71 | 1014.3 |
| 20260510062325 | 52 | 345 | 4.0 | 9.0 | 0.00 | 0.00 | 0.00 | 71 | 1014.2 |
| 20260510061316 | 52 | 345 | 4.0 | 8.0 | 0.00 | 0.00 | 0.00 | 72 | 1014.2 |
| 20260510060316 | 52 | 345 | 2.0 | 10.0 | 0.00 | 0.00 | 0.00 | 72 | 1014.2 |
| 20260510055322 | 52 | 345 | 5.0 | 13.0 | 0.00 | 0.00 | 0.00 | 72 | 1014.3 |
| 20260510054315 | 52 | 345 | 6.0 | 14.0 | 0.00 | 0.00 | 0.00 | 72 | 1014.3 |
| 20260510053325 | 52 | 345 | 4.0 | 16.0 | 0.00 | 0.00 | 0.00 | 72 | 1014.3 |
| 20260510052330 | 52 | 283 | 7.0 | 14.0 | 0.00 | 0.00 | 0.00 | 72 | 1014.2 |
| 20260510051320 | 53 | 253 | 8.0 | 14.0 | 0.00 | 0.00 | 0.00 | 73 | 1014.2 |
| 20260510050320 | 53 | 271 | 6.0 | 11.0 | 0.00 | 0.00 | 0.00 | 73 | 1014.2 |
| 20260510045337 | 53 | 250 | 7.0 | 11.0 | 0.00 | 0.00 | 0.00 | 74 | 1014.1 |
| 20260510044319 | 53 | 239 | 4.0 | 10.0 | 0.00 | 0.00 | 0.00 | 74 | 1014.1 |
| 20260510043349 | 53 | 256 | 3.0 | 8.0 | 0.00 | 0.00 | 0.00 | 74 | 1014.0 |
| 20260510042340 | 53 | 254 | 4.0 | 14.0 | 0.00 | 0.00 | 0.00 | 75 | 1014.0 |
| 20260510041326 | 54 | 303 | 6.0 | 14.0 | 0.00 | 0.00 | 0.00 | 75 | 1013.7 |
| 20260510040328 | 54 | 345 | 5.0 | 15.0 | 0.00 | 0.00 | 0.00 | 76 | 1013.6 |
| 20260510035316 | 54 | 345 | 4.0 | 13.0 | 0.00 | 0.00 | 0.00 | 76 | 1013.5 |
| 20260510034352 | 54 | 345 | 5.0 | 10.0 | 0.00 | 0.00 | 0.00 | 77 | 1013.5 |
| 20260510033311 | 54 | 345 | 5.0 | 12.0 | 0.00 | 0.00 | 0.00 | 77 | 1013.4 |
| 20260510032329 | 54 | 345 | 9.0 | 17.0 | 0.00 | 0.00 | 0.00 | 78 | 1013.3 |
| 20260510031341 | 54 | 345 | 4.0 | 13.0 | 0.00 | 0.00 | 0.00 | 78 | 1013.3 |
| 20260510030323 | 55 | 345 | 6.0 | 13.0 | 0.00 | 0.00 | 0.00 | 78 | 1013.1 |
| 20260510025314 | 55 | 345 | 7.0 | 12.0 | 0.00 | 0.00 | 0.00 | 78 | 1013.1 |
| 20260510024328 | 55 | 345 | 6.0 | 15.0 | 0.00 | 0.00 | 0.00 | 79 | 1013.2 |
| 20260510023335 | 55 | 307 | 8.0 | 17.0 | 0.00 | 0.00 | 0.00 | 78 | 1013.1 |
| 20260510022327 | 56 | 275 | 6.0 | 18.0 | 0.00 | 0.00 | 0.00 | 78 | 1013.0 |
| 20260510021320 | 56 | 350 | 10.0 | 18.0 | 0.00 | 0.00 | 0.00 | 78 | 1013.0 |
| 20260510020317 | 57 | 246 | 12.0 | 25.0 | 0.00 | 0.00 | 0.00 | 77 | 1012.9 |
| 20260510015335 | 58 | 281 | 11.0 | 21.0 | 0.00 | 0.00 | 0.00 | 76 | 1012.9 |
| 20260510014347 | 58 | 271 | 10.0 | 23.0 | 0.00 | 0.00 | 0.00 | 75 | 1013.0 |
| 20260510013312 | 59 | 227 | 12.0 | 22.0 | 0.00 | 0.00 | 0.00 | 74 | 1012.9 |
| 20260510012319 | 59 | 278 | 14.0 | 20.0 | 0.00 | 0.00 | 0.00 | 73 | 1013.1 |
| 20260510011344 | 60 | 249 | 10.0 | 17.0 | 0.00 | 0.00 | 0.00 | 73 | 1013.1 |
| 20260510010316 | 60 | 298 | 8.0 | 15.0 | 0.00 | 0.00 | 0.00 | 73 | 1013.2 |
| 20260510005331 | 60 | 271 | 6.0 | 17.0 | 0.00 | 0.00 | 0.00 | 73 | 1013.3 |
| 20260510004317 | 61 | 311 | 8.0 | 17.0 | 0.00 | 0.00 | 0.00 | 73 | 1013.4 |
| 20260510003324 | 61 | 272 | 8.0 | 18.0 | 0.00 | 0.00 | 0.00 | 72 | 1013.5 |
| 20260510002334 | 61 | 287 | 9.0 | 19.0 | 0.00 | 0.00 | 0.00 | 72 | 1013.5 |
| 20260510001324 | 61 | 298 | 8.0 | 21.0 | 0.00 | 0.00 | 0.00 | 74 | 1013.5 |
| 20260510000343 | 61 | 316 | 10.0 | 20.0 | 0.00 | 0.00 | 0.00 | 73 | 1013.5 |
| 20260509235335 | 61 | 295 | 9.0 | 25.0 | 0.00 | 0.00 | 0.00 | 73 | 1013.5 |
| 20260509234328 | 61 | 340 | 13.0 | 26.0 | 0.00 | 0.00 | 0.00 | 73 | 1013.7 |
| 20260509233310 | 62 | 247 | 11.0 | 20.0 | 0.00 | 0.00 | 0.00 | 72 | 1013.7 |
| 20260509232322 | 62 | 251 | 13.0 | 21.0 | 0.00 | 0.00 | 0.00 | 73 | 1013.7 |
| 20260509231338 | 62 | 252 | 14.0 | 23.0 | 0.00 | 0.00 | 0.00 | 72 | 1013.8 |
| 20260509230322 | 63 | 273 | 12.0 | 23.0 | 0.00 | 0.00 | 0.00 | 72 | 1013.7 |
| 20260509225334 | 63 | 258 | 13.0 | 20.0 | 0.00 | 0.00 | 0.00 | 71 | 1013.9 |
| 20260509224346 | 63 | 254 | 13.0 | 21.0 | 0.00 | 0.00 | 0.00 | 72 | 1014.1 |
| 20260509223336 | 64 | 256 | 11.0 | 28.0 | 0.00 | 0.00 | 0.00 | 70 | 1014.2 |
| 20260509222328 | 64 | 259 | 13.0 | 23.0 | 0.00 | 0.00 | 0.00 | 69 | 1014.3 |
| 20260509221332 | 64 | 237 | 11.0 | 20.0 | 0.00 | 0.00 | 0.00 | 69 | 1014.4 |
| 20260509220320 | 65 | 257 | 14.0 | 24.0 | 0.00 | 0.00 | 0.00 | 68 | 1014.4 |
| 20260509215329 | 65 | 270 | 11.0 | 22.0 | 0.00 | 0.00 | 0.00 | 68 | 1014.5 |
| 20260509214328 | 66 | 274 | 12.0 | 21.0 | 0.00 | 0.00 | 0.00 | 67 | 1014.6 |
| 20260509213335 | 66 | 264 | 14.0 | 24.0 | 0.00 | 0.00 | 0.00 | 66 | 1014.6 |
| 20260509212324 | 67 | 274 | 12.0 | 21.0 | 0.00 | 0.00 | 0.00 | 64 | 1014.6 |
| 20260509211328 | 67 | 231 | 11.0 | 20.0 | 0.00 | 0.00 | 0.00 | 66 | 1014.6 |
| 20260509210333 | 67 | 269 | 12.0 | 18.0 | 0.00 | 0.00 | 0.00 | 65 | 1014.6 |
| 20260509205320 | 68 | 262 | 13.0 | 19.0 | 0.00 | 0.00 | 0.00 | 64 | 1014.7 |
| 20260509204325 | 69 | 248 | 8.0 | 19.0 | 0.00 | 0.00 | 0.00 | 64 | 1014.7 |
| 20260509203326 | 69 | 267 | 10.0 | 18.0 | 0.00 | 0.00 | 0.00 | 63 | 1014.5 |
| 20260509202315 | 69 | 275 | 9.0 | 17.0 | 0.00 | 0.00 | 0.00 | 63 | 1014.7 |
| 20260509201315 | 70 | 252 | 10.0 | 21.0 | 0.00 | 0.00 | 0.00 | 61 | 1014.7 |
| 20260509200321 | 71 | 280 | 10.0 | 17.0 | 0.00 | 0.00 | 0.00 | 60 | 1014.7 |
| 20260509195326 | 71 | 253 | 11.0 | 16.0 | 0.00 | 0.00 | 0.00 | 60 | 1014.8 |
| 20260509194326 | 71 | 244 | 9.0 | 14.0 | 0.00 | 0.00 | 0.00 | 59 | 1014.8 |
| 20260509193335 | 71 | 247 | 11.0 | 16.0 | 0.00 | 0.00 | 0.00 | 60 | 1014.9 |
| 20260509192321 | 72 | 277 | 9.0 | 12.0 | 0.00 | 0.00 | 0.00 | 60 | 1014.9 |
| 20260509191323 | 72 | 254 | 6.0 | 14.0 | 0.00 | 0.00 | 0.00 | 62 | 1015.0 |
| 20260509190350 | 71 | 271 | 6.0 | 12.0 | 0.00 | 0.00 | 0.00 | 63 | 1015.1 |
| 20260509185330 | 71 | 269 | 7.0 | 12.0 | 0.00 | 0.00 | 0.00 | 62 | 1015.3 |
| 20260509184322 | 71 | 248 | 5.0 | 10.0 | 0.00 | 0.00 | 0.00 | 61 | 1015.3 |
| 20260509183330 | 71 | 248 | 4.0 | 8.0 | 0.00 | 0.00 | 0.00 | 61 | 1015.3 |
| 20260509182320 | 70 | 284 | 2.0 | 7.0 | 0.00 | 0.00 | 0.00 | 61 | 1015.3 |
| 20260509181324 | 70 | 271 | 2.0 | 6.0 | 0.00 | 0.00 | 0.00 | 61 | 1015.3 |
| 20260509180329 | 69 | 218 | 2.0 | 6.0 | 0.00 | 0.00 | 0.00 | 63 | 1015.4 |
| 20260509175315 | 69 | 58 | 1.0 | 4.0 | 0.00 | 0.00 | 0.00 | 64 | 1015.4 |
| 20260509174317 | 68 | 196 | 0.0 | 2.0 | 0.00 | 0.00 | 0.00 | 64 | 1015.5 |
| 20260509173322 | 66 | 195 | 2.0 | 3.0 | 0.00 | 0.00 | 0.00 | 66 | 1015.5 |
| 20260509172338 | 66 | 138 | 1.0 | 3.0 | 0.00 | 0.00 | 0.00 | 67 | 1015.6 |
| 20260509171339 | 65 | 101 | 1.0 | 9.0 | 0.00 | 0.00 | 0.00 | 67 | 1015.6 |